QPF
0.02 0.02 0.02 0.02 0.03 0.03 0.03 0.03 0.02 0.02 0.01 0.01 0.00 0.01 0.00 0.00 0.00 0.01 0.02 0.02 0.01 0.03 0.04 0.05 0.04 0.02 0.02 0.02 0.02 0.01 0.01 0.01 0.01 0.01 0.01 0.01 0.01 0.01 0.01 0.01 0.01 0.01 0.01
0.04 0.04 0.04 0.05 0.04 0.03 0.04 0.04 0.02 0.02 0.02 0.01 0.01 0.01 0.01 0.01 0.01 0.01 0.04 0.03 0.03 0.03 0.04 0.05 0.05 0.04 0.03 0.04 0.03 0.02 0.02 0.01 0.01 0.01 0.01 0.01 0.01 0.01 0.01 0.01 0.01 0.01 0.01
0.07 0.06 0.06 0.07 0.06 0.05 0.06 0.04 0.04 0.04 0.04 0.05 0.03 0.02 0.02 0.02 0.02 0.03 0.06 0.06 0.05 0.04 0.03 0.04 0.04 0.04 0.04 0.04 0.05 0.04 0.03 0.03 0.02 0.01 0.01 0.01 0.01 0.01 0.01 0.01 0.02 0.01 0.01
0.06 0.07 0.08 0.07 0.06 0.07 0.07 0.08 0.08 0.07 0.08 0.09 0.08 0.06 0.04 0.05 0.06 0.06 0.07 0.07 0.09 0.08 0.05 0.03 0.03 0.04 0.04 0.05 0.05 0.06 0.05 0.04 0.03 0.02 0.01 0.01 0.01 0.01 0.01 0.01 0.01 0.01 0.01
0.05 0.08 0.09 0.09 0.08 0.07 0.08 0.07 0.09 0.10 0.12 0.13 0.11 0.10 0.07 0.09 0.13 0.12 0.09 0.09 0.11 0.12 0.11 0.07 0.05 0.05 0.04 0.04 0.04 0.04 0.04 0.04 0.03 0.02 0.02 0.02 0.02 0.02 0.01 0.01 0.01 0.01 0.01
0.10 0.10 0.08 0.08 0.08 0.09 0.10 0.11 0.13 0.13 0.14 0.15 0.12 0.12 0.11 0.11 0.13 0.17 0.16 0.13 0.14 0.15 0.16 0.14 0.12 0.07 0.05 0.05 0.06 0.06 0.05 0.05 0.04 0.03 0.02 0.02 0.02 0.02 0.02 0.01 0.01 0.02 0.02
0.12 0.11 0.10 0.09 0.08 0.09 0.11 0.12 0.14 0.15 0.17 0.18 0.17 0.16 0.14 0.12 0.13 0.16 0.15 0.15 0.13 0.12 0.13 0.14 0.18 0.16 0.10 0.07 0.05 0.04 0.03 0.03 0.03 0.02 0.03 0.03 0.03 0.03 0.02 0.02 0.02 0.02 0.02
0.16 0.16 0.15 0.13 0.12 0.11 0.11 0.13 0.16 0.16 0.17 0.18 0.18 0.21 0.20 0.16 0.14 0.12 0.12 0.12 0.11 0.09 0.08 0.07 0.06 0.07 0.06 0.05 0.03 0.02 0.02 0.02 0.03 0.03 0.03 0.03 0.03 0.02 0.02 0.02 0.02 0.02 0.02
0.21 0.20 0.17 0.15 0.14 0.12 0.12 0.11 0.13 0.14 0.14 0.15 0.17 0.19 0.20 0.20 0.17 0.12 0.10 0.07 0.07 0.07 0.05 0.04 0.03 0.03 0.03 0.03 0.03 0.03 0.04 0.03 0.04 0.04 0.04 0.04 0.03 0.02 0.02 0.03 0.03 0.03 0.03
0.23 0.19 0.16 0.13 0.12 0.11 0.11 0.10 0.09 0.10 0.11 0.10 0.09 0.10 0.11 0.12 0.13 0.10 0.06 0.06 0.06 0.05 0.04 0.04 0.04 0.04 0.05 0.05 0.04 0.03 0.03 0.03 0.02 0.02 0.02 0.02 0.02 0.02 0.02 0.03 0.03 0.03 0.04
0.20 0.16 0.14 0.11 0.09 0.07 0.07 0.07 0.07 0.08 0.09 0.09 0.09 0.08 0.08 0.08 0.09 0.08 0.07 0.06 0.05 0.04 0.04 0.04 0.04 0.04 0.04 0.04 0.03 0.02 0.03 0.02 0.02 0.02 0.02 0.01 0.01 0.01 0.01 0.02 0.02 0.02 0.03
0.18 0.16 0.13 0.11 0.09 0.08 0.09 0.08 0.07 0.07 0.08 0.09 0.09 0.08 0.07 0.07 0.08 0.08 0.08 0.06 0.05 0.04 0.03 0.03 0.03 0.03 0.03 0.03 0.03 0.03 0.02 0.02 0.02 0.02 0.02 0.01 0.01 0.01 0.01 0.02 0.02 0.02 0.02
0.15 0.12 0.11 0.10 0.08 0.07 0.07 0.08 0.08 0.07 0.07 0.07 0.08 0.08 0.07 0.07 0.07 0.06 0.06 0.05 0.04 0.03 0.03 0.02 0.02 0.02 0.02 0.02 0.02 0.02 0.02 0.02 0.02 0.02 0.02 0.02 0.01 0.01 0.01 0.01 0.02 0.02 0.02
0.10 0.09 0.06 0.05 0.05 0.05 0.05 0.05 0.06 0.06 0.06 0.06 0.05 0.05 0.05 0.05 0.04 0.04 0.05 0.05 0.04 0.04 0.03 0.02 0.02 0.02 0.01 0.01 0.01 0.02 0.01 0.01 0.01 0.01 0.01 0.01 0.01 0.00 0.00 0.00 0.01 0.01 0.01
0.07 0.05 0.04 0.04 0.04 0.04 0.05 0.05 0.04 0.05 0.05 0.05 0.05 0.04 0.04 0.03 0.03 0.03 0.03 0.03 0.03 0.03 0.03 0.03 0.03 0.02 0.02 0.02 0.02 0.01 0.01 0.01 0.01 0.01 0.00 0.00 0.00 0.00 0.00 0.00 0.00 0.00 0.00
0.06 0.05 0.05 0.04 0.04 0.04 0.05 0.05 0.05 0.04 0.04 0.04 0.04 0.04 0.04 0.03 0.03 0.03 0.03 0.03 0.03 0.03 0.03 0.03 0.02 0.01 0.01 0.01 0.01 0.01 0.01 0.01 0.00 0.00 0.00 0.00 0.00 0.00 0.00 0.00 0.00 0.00 0.00
0.04 0.04 0.04 0.04 0.04 0.04 0.05 0.05 0.05 0.05 0.05 0.05 0.05 0.05 0.04 0.04 0.04 0.04 0.03 0.03 0.03 0.03 0.03 0.03 0.02 0.02 0.01 0.01 0.01 0.01 0.01 0.01 0.00 0.00 0.00 0.00 0.00 0.00 0.00 0.00 0.00 0.00 0.00
0.03 0.03 0.03 0.04 0.05 0.05 0.05 0.05 0.04 0.04 0.04 0.04 0.04 0.04 0.04 0.03 0.04 0.04 0.04 0.04 0.04 0.05 0.05 0.05 0.04 0.03 0.02 0.02 0.02 0.01 0.01 0.00 0.00 0.00 0.00 0.00 0.00 0.00 0.00 0.00 0.00 0.00 0.00
0.02 0.02 0.03 0.03 0.03 0.03 0.03 0.03 0.02 0.02 0.02 0.02 0.02 0.02 0.02 0.02 0.02 0.02 0.02 0.02 0.02 0.03 0.03 0.03 0.02 0.02 0.01 0.01 0.01 0.01 0.01 0.02 0.01 0.00 0.00 0.00 0.00 0.00 0.00 0.00 0.00 0.00 0.00
0.01 0.01 0.01 0.01 0.02 0.02 0.02 0.01 0.01 0.01 0.01 0.01 0.01 0.01 0.01 0.01 0.01 0.01 0.01 0.01 0.01 0.01 0.02 0.02 0.02 0.02 0.01 0.02 0.03 0.03 0.03 0.03 0.02 0.00 0.00 0.00 0.01 0.00 0.00 0.00 0.00 0.00 0.00
0.00 0.00 0.00 0.00 0.00 0.00 0.00 0.00 0.00 0.00 0.00 0.01 0.01 0.01 0.01 0.00 0.00 0.00 0.00 0.00 0.01 0.01 0.01 0.02 0.02 0.02 0.03 0.04 0.05 0.04 0.03 0.02 0.02 0.02 0.02 0.01 0.02 0.03 0.04 0.03 0.02 0.01 0.00
0.01 0.01 0.00 0.00 0.01 0.00 0.00 0.00 0.00 0.00 0.01 0.01 0.01 0.01 0.01 0.00 0.00 0.00 0.00 0.00 0.00 0.00 0.01 0.01 0.02 0.03 0.04 0.05 0.05 0.03 0.03 0.03 0.02 0.02 0.02 0.02 0.03 0.04 0.04 0.04 0.02 0.00 0.00
0.01 0.01 0.01 0.01 0.02 0.00 0.00 0.00 0.00 0.00 0.01 0.02 0.02 0.02 0.01 0.01 0.01 0.02 0.01 0.00 0.02 0.02 0.01 0.01 0.02 0.04 0.05 0.05 0.04 0.03 0.03 0.04 0.03 0.03 0.04 0.03 0.04 0.03 0.03 0.01 0.00 0.00 0.00
0.02 0.02 0.02 0.02 0.03 0.01 0.00 0.00 0.00 0.00 0.02 0.02 0.02 0.02 0.02 0.04 0.02 0.00 0.00 0.01 0.05 0.08 0.05 0.03 0.04 0.04 0.03 0.02 0.02 0.01 0.02 0.02 0.03 0.05 0.06 0.04 0.03 0.02 0.02 0.04 0.02 0.00 0.00
0.03 0.02 0.02 0.03 0.04 0.02 0.00 0.00 0.00 0.00 0.02 0.02 0.03 0.03 0.02 0.03 0.01 0.00 0.00 0.02 0.05 0.07 0.03 0.01 0.01 0.00 0.00 0.00 0.00 0.00 0.02 0.05 0.05 0.06 0.05 0.02 0.02 0.02 0.01 0.03 0.03 0.01 0.00
0.03 0.03 0.03 0.03 0.04 0.03 0.00 0.00 0.00 0.00 0.01 0.02 0.05 0.08 0.03 0.00 0.00 0.00 0.00 0.01 0.03 0.03 0.02 0.03 0.05 0.05 0.05 0.04 0.02 0.01 0.04 0.06 0.06 0.05 0.04 0.02 0.03 0.03 0.02 0.01 0.03 0.04 0.05
MSLP
1015.37 1015.61 1015.81 1016.01 1016.21 1016.42 1016.62 1016.81 1016.95 1017.01 1016.98 1016.87 1016.69 1016.50 1016.34 1016.26 1016.32 1016.51 1016.85 1017.28 1017.77 1018.28 1018.74 1019.14 1019.46 1019.71 1019.91 1020.09 1020.26 1020.45 1020.65 1020.87 1021.09 1021.30 1021.49 1021.65 1021.78 1021.88 1021.96 1022.03 1022.08 1022.13 1022.17
1015.04 1015.30 1015.52 1015.73 1015.94 1016.16 1016.39 1016.60 1016.77 1016.87 1016.89 1016.83 1016.71 1016.57 1016.44 1016.37 1016.41 1016.57 1016.86 1017.24 1017.69 1018.15 1018.58 1018.96 1019.27 1019.51 1019.70 1019.87 1020.03 1020.20 1020.40 1020.61 1020.83 1021.05 1021.26 1021.45 1021.60 1021.73 1021.83 1021.91 1021.97 1022.03 1022.08
1014.82 1015.10 1015.35 1015.58 1015.81 1016.05 1016.30 1016.53 1016.73 1016.87 1016.95 1016.95 1016.88 1016.78 1016.68 1016.63 1016.65 1016.77 1017.00 1017.31 1017.68 1018.08 1018.46 1018.80 1019.08 1019.31 1019.48 1019.63 1019.77 1019.92 1020.09 1020.28 1020.49 1020.71 1020.93 1021.13 1021.32 1021.47 1021.60 1021.71 1021.80 1021.88 1021.96
1014.73 1015.04 1015.33 1015.59 1015.85 1016.10 1016.35 1016.59 1016.81 1016.98 1017.10 1017.14 1017.13 1017.08 1017.02 1016.97 1016.98 1017.06 1017.23 1017.47 1017.76 1018.08 1018.40 1018.69 1018.94 1019.13 1019.29 1019.41 1019.53 1019.65 1019.79 1019.95 1020.14 1020.34 1020.55 1020.76 1020.95 1021.13 1021.29 1021.43 1021.56 1021.68 1021.81
1014.79 1015.15 1015.48 1015.78 1016.05 1016.31 1016.55 1016.78 1016.99 1017.17 1017.30 1017.39 1017.42 1017.41 1017.39 1017.36 1017.36 1017.42 1017.53 1017.70 1017.92 1018.17 1018.42 1018.66 1018.87 1019.03 1019.16 1019.27 1019.36 1019.46 1019.57 1019.70 1019.85 1020.02 1020.21 1020.40 1020.59 1020.77 1020.95 1021.12 1021.28 1021.44 1021.60
1015.03 1015.46 1015.83 1016.16 1016.45 1016.69 1016.90 1017.10 1017.28 1017.43 1017.56 1017.66 1017.72 1017.76 1017.77 1017.77 1017.78 1017.82 1017.89 1018.01 1018.16 1018.34 1018.52 1018.71 1018.88 1019.02 1019.13 1019.23 1019.31 1019.39 1019.47 1019.57 1019.68 1019.82 1019.97 1020.13 1020.29 1020.46 1020.63 1020.80 1020.98 1021.15 1021.33
1015.49 1015.98 1016.41 1016.76 1017.04 1017.25 1017.42 1017.56 1017.67 1017.78 1017.89 1017.98 1018.06 1018.13 1018.18 1018.21 1018.24 1018.27 1018.32 1018.38 1018.47 1018.58 1018.70 1018.83 1018.96 1019.08 1019.19 1019.28 1019.36 1019.44 1019.51 1019.59 1019.68 1019.78 1019.88 1020.00 1020.12 1020.25 1020.39 1020.54 1020.69 1020.86 1021.04
1016.19 1016.74 1017.20 1017.56 1017.82 1017.99 1018.10 1018.16 1018.21 1018.26 1018.32 1018.40 1018.48 1018.57 1018.65 1018.71 1018.75 1018.78 1018.80 1018.82 1018.84 1018.88 1018.94 1019.01 1019.10 1019.20 1019.29 1019.40 1019.49 1019.58 1019.67 1019.75 1019.82 1019.89 1019.96 1020.02 1020.09 1020.17 1020.25 1020.35 1020.46 1020.59 1020.73
1017.11 1017.70 1018.19 1018.54 1018.77 1018.89 1018.92 1018.91 1018.88 1018.86 1018.88 1018.93 1019.01 1019.11 1019.21 1019.29 1019.34 1019.35 1019.34 1019.30 1019.25 1019.21 1019.19 1019.20 1019.24 1019.30 1019.40 1019.51 1019.63 1019.75 1019.86 1019.96 1020.03 1020.09 1020.13 1020.16 1020.18 1020.19 1020.21 1020.24 1020.29 1020.35 1020.43
1018.20 1018.81 1019.29 1019.62 1019.81 1019.87 1019.83 1019.74 1019.65 1019.57 1019.55 1019.57 1019.65 1019.75 1019.85 1019.94 1019.98 1019.96 1019.90 1019.80 1019.67 1019.54 1019.43 1019.36 1019.33 1019.36 1019.44 1019.56 1019.70 1019.85 1020.00 1020.13 1020.23 1020.29 1020.32 1020.32 1020.30 1020.26 1020.22 1020.19 1020.16 1020.16 1020.17
1019.37 1019.96 1020.40 1020.68 1020.81 1020.81 1020.72 1020.58 1020.43 1020.32 1020.27 1020.28 1020.34 1020.44 1020.54 1020.61 1020.62 1020.57 1020.44 1020.26 1020.04 1019.82 1019.61 1019.45 1019.35 1019.33 1019.38 1019.49 1019.64 1019.82 1020.01 1020.17 1020.30 1020.39 1020.43 1020.42 1020.37 1020.30 1020.22 1020.13 1020.05 1019.99 1019.94
1020.49 1021.02 1021.39 1021.61 1021.68 1021.63 1021.50 1021.32 1021.15 1021.02 1020.96 1020.96 1021.02 1021.10 1021.18 1021.23 1021.21 1021.10 1020.91 1020.65 1020.35 1020.02 1019.72 1019.47 1019.29 1019.21 1019.21 1019.30 1019.45 1019.64 1019.84 1020.04 1020.19 1020.30 1020.36 1020.36 1020.31 1020.23 1020.13 1020.01 1019.90 1019.80 1019.71
1021.45 1021.88 1022.17 1022.31 1022.33 1022.24 1022.08 1021.89 1021.72 1021.60 1021.53 1021.54 1021.59 1021.66 1021.72 1021.73 1021.67 1021.51 1021.27 1020.94 1020.56 1020.16 1019.78 1019.45 1019.20 1019.04 1018.99 1019.03 1019.15 1019.32 1019.52 1019.72 1019.89 1020.01 1020.09 1020.10 1020.07 1020.00 1019.90 1019.79 1019.67 1019.56 1019.46
1022.17 1022.49 1022.68 1022.75 1022.72 1022.61 1022.44 1022.27 1022.11 1022.00 1021.95 1021.96 1022.00 1022.05 1022.08 1022.06 1021.97 1021.78 1021.49 1021.12 1020.70 1020.25 1019.82 1019.43 1019.11 1018.89 1018.77 1018.75 1018.81 1018.93 1019.09 1019.26 1019.41 1019.53 1019.61 1019.64 1019.63 1019.58 1019.51 1019.42 1019.33 1019.24 1019.16
1022.64 1022.85 1022.96 1022.97 1022.90 1022.78 1022.63 1022.48 1022.35 1022.26 1022.22 1022.22 1022.25 1022.28 1022.28 1022.23 1022.11 1021.90 1021.60 1021.22 1020.80 1020.34 1019.89 1019.47 1019.11 1018.83 1018.63 1018.53 1018.50 1018.54 1018.63 1018.73 1018.84 1018.93 1019.00 1019.03 1019.03 1019.01 1018.97 1018.92 1018.88 1018.83 1018.78
1022.90 1023.03 1023.08 1023.05 1022.98 1022.87 1022.74 1022.62 1022.52 1022.45 1022.41 1022.40 1022.39 1022.39 1022.36 1022.28 1022.14 1021.92 1021.64 1021.29 1020.90 1020.47 1020.04 1019.62 1019.23 1018.90 1018.64 1018.45 1018.32 1018.25 1018.22 1018.23 1018.26 1018.29 1018.31 1018.33 1018.33 1018.32 1018.32 1018.31 1018.31 1018.31 1018.31
1023.06 1023.14 1023.16 1023.14 1023.08 1022.99 1022.90 1022.80 1022.72 1022.65 1022.60 1022.55 1022.51 1022.46 1022.38 1022.28 1022.13 1021.93 1021.68 1021.39 1021.05 1020.68 1020.29 1019.90 1019.51 1019.15 1018.82 1018.53 1018.28 1018.09 1017.94 1017.83 1017.75 1017.69 1017.65 1017.63 1017.61 1017.60 1017.60 1017.63 1017.66 1017.71 1017.76
1023.22 1023.29 1023.33 1023.33 1023.30 1023.25 1023.19 1023.11 1023.03 1022.95 1022.86 1022.77 1022.68 1022.57 1022.45 1022.31 1022.15 1021.98 1021.77 1021.54 1021.28 1020.98 1020.65 1020.29 1019.91 1019.52 1019.12 1018.74 1018.39 1018.07 1017.79 1017.55 1017.36 1017.20 1017.08 1016.99 1016.93 1016.90 1016.90 1016.93 1016.98 1017.05 1017.13
1023.45 1023.55 1023.63 1023.67 1023.68 1023.67 1023.63 1023.57 1023.48 1023.38 1023.25 1023.10 1022.93 1022.77 1022.59 1022.42 1022.26 1022.10 1021.93 1021.76 1021.56 1021.33 1021.06 1020.73 1020.36 1019.94 1019.50 1019.04 1018.58 1018.14 1017.74 1017.39 1017.09 1016.83 1016.63 1016.47 1016.36 1016.28 1016.25 1016.26 1016.30 1016.36 1016.45
1023.77 1023.92 1024.05 1024.14 1024.19 1024.21 1024.20 1024.13 1024.03 1023.89 1023.71 1023.50 1023.28 1023.05 1022.83 1022.62 1022.45 1022.29 1022.16 1022.02 1021.87 1021.69 1021.45 1021.15 1020.77 1020.33 1019.84 1019.31 1018.77 1018.25 1017.75 1017.31 1016.91 1016.58 1016.30 1016.08 1015.90 1015.78 1015.69 1015.65 1015.65 1015.69 1015.76
1024.15 1024.34 1024.51 1024.64 1024.73 1024.77 1024.77 1024.70 1024.58 1024.41 1024.18 1023.92 1023.65 1023.37 1023.11 1022.87 1022.68 1022.52 1022.39 1022.28 1022.15 1021.98 1021.75 1021.45 1021.06 1020.60 1020.07 1019.49 1018.90 1018.31 1017.76 1017.25 1016.80 1016.42 1016.09 1015.81 1015.57 1015.39 1015.24 1015.13 1015.07 1015.05 1015.07
1024.51 1024.73 1024.92 1025.08 1025.18 1025.23 1025.23 1025.16 1025.02 1024.82 1024.57 1024.28 1023.97 1023.66 1023.37 1023.11 1022.90 1022.72 1022.59 1022.46 1022.32 1022.14 1021.90 1021.58 1021.17 1020.68 1020.12 1019.51 1018.89 1018.28 1017.71 1017.18 1016.71 1016.30 1015.94 1015.63 1015.35 1015.10 1014.89 1014.70 1014.56 1014.47 1014.42
1024.80 1025.01 1025.20 1025.35 1025.46 1025.51 1025.49 1025.42 1025.27 1025.07 1024.81 1024.50 1024.18 1023.86 1023.55 1023.28 1023.04 1022.85 1022.68 1022.53 1022.35 1022.14 1021.86 1021.51 1021.07 1020.55 1019.97 1019.36 1018.74 1018.13 1017.57 1017.06 1016.61 1016.21 1015.85 1015.52 1015.21 1014.91 1014.63 1014.37 1014.15 1013.96 1013.83
1024.95 1025.13 1025.30 1025.43 1025.52 1025.56 1025.55 1025.47 1025.32 1025.12 1024.86 1024.57 1024.25 1023.92 1023.61 1023.33 1023.07 1022.85 1022.64 1022.44 1022.22 1021.96 1021.64 1021.24 1020.77 1020.23 1019.65 1019.04 1018.45 1017.88 1017.35 1016.89 1016.47 1016.10 1015.76 1015.44 1015.11 1014.78 1014.45 1014.12 1013.82 1013.55 1013.33
1024.99 1025.13 1025.26 1025.37 1025.44 1025.47 1025.45 1025.37 1025.23 1025.04 1024.79 1024.50 1024.19 1023.87 1023.56 1023.25 1022.97 1022.72 1022.47 1022.21 1021.94 1021.62 1021.25 1020.81 1020.32 1019.77 1019.20 1018.62 1018.06 1017.54 1017.07 1016.66 1016.30 1015.98 1015.67 1015.36 1015.04 1014.69 1014.33 1013.95 1013.57 1013.23 1012.93
1024.96 1025.07 1025.17 1025.26 1025.31 1025.33 1025.31 1025.23 1025.10 1024.91 1024.67 1024.38 1024.07 1023.74 1023.41 1023.08 1022.77 1022.47 1022.17 1021.86 1021.53 1021.17 1020.75 1020.29 1019.78 1019.24 1018.68 1018.13 1017.62 1017.15 1016.74 1016.39 1016.09 1015.82 1015.55 1015.28 1014.97 1014.62 1014.24 1013.83 1013.41 1013.01 1012.65
Thickness
5751 5752 5749 5747 5746 5745 5743 5741 5740 5740 5740 5739 5738 5737 5736 5736 5734 5732 5728 5725 5722 5719 5716 5712 5708 5704 5701 5699 5696 5693 5691 5689 5687 5685 5684 5682 5680 5679 5677 5677 5676 5675 5675
5751 5750 5747 5745 5744 5743 5742 5740 5739 5738 5737 5735 5734 5734 5733 5731 5730 5727 5724 5721 5718 5715 5713 5710 5706 5702 5699 5696 5694 5691 5688 5686 5684 5682 5680 5678 5677 5675 5674 5672 5671 5671 5670
5748 5746 5744 5742 5741 5740 5738 5736 5735 5734 5732 5730 5729 5728 5727 5726 5724 5721 5719 5717 5714 5711 5709 5706 5703 5699 5696 5693 5690 5688 5685 5682 5680 5678 5676 5674 5672 5671 5669 5668 5666 5665 5664
5745 5742 5740 5738 5737 5735 5733 5730 5728 5726 5724 5722 5721 5721 5720 5718 5717 5715 5712 5711 5709 5707 5703 5701 5698 5695 5692 5688 5686 5683 5681 5678 5675 5673 5671 5668 5667 5665 5663 5662 5660 5659 5658
5740 5737 5735 5733 5731 5729 5726 5724 5721 5719 5716 5713 5711 5711 5710 5708 5706 5706 5704 5703 5702 5701 5698 5695 5692 5689 5686 5683 5680 5677 5675 5672 5670 5667 5664 5662 5660 5658 5656 5655 5653 5652 5650
5734 5730 5727 5725 5723 5721 5719 5716 5713 5711 5708 5704 5702 5701 5700 5700 5698 5696 5695 5694 5693 5692 5689 5688 5684 5681 5679 5676 5673 5670 5667 5665 5662 5660 5657 5655 5653 5651 5649 5647 5645 5644 5643
5726 5723 5720 5717 5714 5711 5709 5707 5704 5701 5698 5695 5691 5690 5691 5692 5690 5688 5687 5685 5684 5683 5681 5679 5676 5673 5670 5667 5665 5662 5659 5656 5653 5650 5647 5645 5643 5641 5640 5638 5636 5635 5633
5715 5713 5709 5706 5703 5700 5698 5696 5694 5691 5689 5686 5681 5678 5677 5678 5681 5681 5679 5677 5675 5673 5670 5668 5666 5664 5661 5657 5655 5652 5648 5645 5642 5639 5636 5634 5632 5631 5629 5628 5626 5624 5623
5701 5699 5696 5694 5692 5690 5687 5685 5685 5683 5680 5677 5674 5671 5667 5667 5669 5670 5669 5667 5665 5663 5660 5658 5656 5653 5650 5647 5644 5640 5636 5632 5629 5626 5623 5621 5619 5618 5616 5615 5614 5613 5612
5687 5685 5683 5681 5679 5676 5675 5674 5674 5674 5672 5668 5667 5665 5661 5659 5657 5656 5656 5655 5653 5651 5649 5647 5644 5641 5637 5634 5631 5627 5623 5618 5615 5612 5609 5607 5605 5604 5602 5601 5600 5599 5598
5671 5669 5668 5667 5665 5663 5662 5661 5662 5661 5659 5656 5655 5653 5650 5649 5647 5645 5642 5641 5640 5639 5637 5634 5631 5628 5624 5620 5617 5613 5608 5604 5600 5596 5594 5592 5590 5588 5587 5585 5584 5583 5583
5656 5654 5654 5652 5650 5649 5648 5647 5647 5646 5644 5642 5640 5639 5637 5634 5632 5631 5629 5627 5625 5624 5622 5621 5618 5615 5611 5607 5603 5598 5593 5589 5585 5581 5578 5575 5574 5572 5570 5569 5568 5567 5567
5643 5640 5639 5637 5635 5634 5633 5633 5632 5630 5627 5626 5624 5622 5621 5619 5618 5617 5615 5612 5611 5610 5608 5606 5603 5600 5596 5592 5587 5582 5578 5573 5569 5565 5561 5559 5557 5555 5554 5552 5551 5550 5549
5627 5625 5624 5622 5620 5619 5618 5617 5615 5613 5611 5609 5608 5605 5604 5602 5601 5599 5597 5595 5594 5594 5592 5589 5587 5584 5580 5575 5571 5566 5562 5558 5554 5549 5546 5543 5541 5539 5537 5535 5534 5533 5532
5614 5611 5609 5607 5605 5603 5602 5600 5599 5596 5595 5592 5590 5589 5586 5585 5584 5582 5580 5578 5576 5574 5572 5571 5568 5566 5563 5558 5554 5550 5546 5543 5539 5535 5532 5530 5527 5524 5522 5520 5518 5517 5515
5599 5596 5594 5592 5590 5588 5586 5585 5583 5580 5578 5576 5575 5573 5570 5568 5566 5565 5564 5563 5560 5556 5553 5552 5549 5548 5545 5541 5538 5534 5530 5528 5525 5523 5521 5517 5513 5511 5509 5507 5505 5503 5501
5585 5583 5580 5578 5577 5574 5572 5570 5568 5566 5563 5561 5559 5557 5554 5552 5550 5548 5546 5545 5542 5539 5534 5533 5532 5530 5528 5525 5523 5519 5517 5515 5513 5512 5510 5507 5503 5501 5499 5496 5494 5491 5489
5572 5570 5567 5565 5564 5561 5558 5556 5554 5551 5549 5546 5543 5541 5538 5537 5534 5531 5528 5527 5524 5521 5518 5515 5514 5513 5513 5511 5510 5507 5505 5504 5502 5501 5500 5498 5496 5493 5490 5487 5485 5482 5480
5559 5557 5554 5553 5550 5547 5543 5541 5539 5536 5534 5531 5528 5525 5522 5520 5517 5514 5511 5510 5507 5506 5503 5501 5500 5499 5499 5499 5497 5496 5495 5493 5492 5492 5492 5490 5488 5485 5483 5480 5477 5475 5472
5548 5545 5542 5539 5535 5531 5528 5524 5522 5521 5518 5516 5514 5511 5508 5505 5501 5498 5496 5494 5492 5490 5489 5488 5487 5488 5488 5488 5486 5484 5483 5483 5482 5482 5482 5481 5480 5478 5476 5474 5471 5467 5464
5537 5534 5530 5527 5522 5517 5511 5507 5506 5506 5503 5502 5500 5497 5495 5491 5487 5483 5481 5478 5477 5476 5475 5476 5476 5478 5477 5476 5475 5474 5473 5473 5474 5475 5474 5473 5472 5471 5469 5467 5465 5461 5457
5525 5522 5518 5515 5509 5503 5496 5493 5490 5490 5489 5488 5486 5484 5482 5480 5475 5471 5469 5467 5465 5464 5464 5463 5465 5466 5467 5467 5467 5466 5465 5464 5465 5467 5466 5465 5465 5464 5464 5463 5460 5456 5452
5514 5511 5508 5503 5496 5488 5484 5481 5479 5477 5477 5476 5473 5470 5469 5468 5464 5461 5459 5459 5458 5458 5457 5455 5456 5458 5460 5460 5460 5460 5459 5458 5458 5460 5460 5459 5460 5459 5459 5458 5455 5451 5447
5504 5501 5497 5493 5486 5478 5474 5471 5469 5469 5469 5467 5464 5461 5459 5457 5453 5449 5449 5451 5452 5454 5455 5455 5455 5456 5457 5457 5455 5454 5454 5455 5457 5458 5457 5455 5457 5456 5456 5454 5451 5447 5444
5496 5493 5489 5484 5478 5470 5465 5462 5460 5461 5461 5459 5456 5454 5452 5449 5444 5442 5443 5445 5448 5450 5453 5454 5455 5456 5457 5456 5454 5452 5452 5453 5454 5455 5455 5452 5453 5451 5451 5451 5448 5444 5441
5489 5486 5482 5477 5472 5464 5458 5455 5452 5454 5453 5452 5451 5449 5446 5444 5442 5440 5439 5441 5444 5447 5449 5452 5455 5457 5458 5458 5457 5453 5452 5451 5451 5452 5453 5449 5448 5446 5445 5446 5444 5442 5439